Volver al catálogo

STARLINK-3657

ActivoComunicacionesVLEO
NORAD 51990·PAYLOAD·🇺🇸 United States

Lanzado Mar 9, 2022 desde Cape Canaveral Space Force Station

Loading…

Próximos Pases (próximas 24 horas)

TLE

ActualizadoSource: CelesTrak SupGP

Época: Sep 14, 2026, 21:33 UTC

1 51990C 22025AL  26257.89840278  .00033300  00000+0  95283-3 0  2578
2 51990  53.1575 239.5901 0001305  92.6650 311.6281 15.35379097    10

Sigue STARLINK-3657 en tiempo real con AllMySat

Download on the App Store